Regional Weather Roundup
Issued by NWS

Home | Current Version | Previous Version | Text Only | Print | Product List | Glossary Off
Versions: 1 2 3 4 5 6 7 8 9 10 11 12 13 14 15 16 17 18 19 20 21 22 23 24 25 26 27 28 29 30 31 32 33 34 35 36 37 38 39 40 41 42 43 44 45 46 47 48 49 50

000
ASUS43 KLOT 160006
RWRIL

ILLINOIS REGIONAL WEATHER ROUNDUP
NATIONAL WEATHER SERVICE CHICAGO/ROMEOVILLE IL
700 PM CDT TUE APR 15 2014

NOTE: "FAIR" INDICATES FEW OR NO CLOUDS BELOW 12,000 FEET WITH NO
SIGNIFICANT WEATHER AND/OR OBSTRUCTIONS TO VISIBILITY.

* THESE STATIONS ARE NOT UNDER NWS QUALITY CONTROL. THEY ALSO MAY NOT
  REPORT WEATHER SUCH AS PRECIPITATION OR FOG.

ILZ001-002-007-009-015-016-024-160100-
NORTHWEST ILLINOIS

CITY           SKY/WX    TMP DP  RH WIND       PRES   REMARKS
MOLINE         CLEAR     40   9  28 W7        30.13F
6HR MIN TEMP:  38; 6HR MAX TEMP:  43;

STERLING*      CLEAR     39  18  41 NW8       30.14S WCI  34
SAVANNA*       CLEAR     39  14  35 W7        30.13S WCI  34
$$

ILZ003-004-008-010-011-017-018-160100-
NORTH CENTRAL ILLINOIS

CITY           SKY/WX    TMP DP  RH WIND       PRES   REMARKS
ROCKFORD       MOCLDY    37  15  40 SW5       30.15R WCI  33
6HR MIN TEMP:  34; 6HR MAX TEMP:  40; 6HR PCP: TRACE;

FREEPORT*      CLEAR     39  14  36 W6        30.14S WCI  34
ROCHELLE*      PTCLDY    37  19  50 SW5       30.14S WCI  33
DE KALB*       PTCLDY    34  19  53 SW7       30.14S WCI  28
$$

ILZ005-006-012>014-019>023-160100-
NORTHEAST ILLINOIS

CITY           SKY/WX    TMP DP  RH WIND       PRES   REMARKS
CHICAGO-OHARE  MOCLDY    36  15  42 W9        30.14S WCI  29
CHICAGO-MIDWAY MOCLDY    35  19  52 SE10      30.16R WCI  27
6HR MIN TEMP:  33; 6HR MAX TEMP:  38; 6HR PCP: TRACE;

AURORA         PTCLDY    36  19  50 SW5       30.15S WCI  32
6HR MIN TEMP:  33; 6HR MAX TEMP:  38;

LANSING*       MOCLDY    35  17  48 W7        30.17R WCI  29
WAUKEGAN       CLOUDY    30  18  60 SE12      30.14S WCI  20
6HR MIN TEMP:  30; 6HR MAX TEMP:  34;

DUPAGE AIRPORT PTCLDY    35  19  52 SW8       30.14S WCI  29
6HR MIN TEMP:  33; 6HR MAX TEMP:  38;

KANKAKEE*      MOCLDY    36  22  55 W5        30.18S WCI  32
WHEELING       MOCLDY    33  18  53 SE9       30.16S WCI  25
6HR MIN TEMP:  33; 6HR MAX TEMP:  38;

MORRIS*        MOCLDY    38  16  41 W6        30.16S WCI  33
NORTHERLY ISL    N/A     32  21  64 E10         N/A  WCI  24
$$

LMZ740>746-160100-
SOUTHERN LAKE MICHIGAN

STATION/POSITION SKY/WX   TEMP    WIND        PRES    VSBY  WAVE
                          AIR SEA DIR/SP/G                  HT/PER
                          (F)     (DEG/KT/KT) (MB)    (MI)  (FT/S)
WAUKEGAN HARBOR            31     150/ 16/ 18 1022.0S
HARRISON CRIB              31     110/ 13/ 16   N/A
BURNHAM HARBOR             32     120/ 10/ 13   N/A
CALUMET HARBOR             33      90/  7/  9 1022.2S
MICHIGAN CITY              31      20/  4/  6   N/A
$$

ILZ025>027-034>036-040-047-049-050-058-095>099-160100-
WEST-CENTRAL ILLINOIS

CITY           SKY/WX    TMP DP  RH WIND       PRES   REMARKS
QUINCY         CLEAR     45  18  34 SW6       30.14S
GALESBURG*     CLEAR     40  21  46 W7        30.14S
MACOMB*        CLEAR     42  22  45 W5        30.17S
JACKSONVILLE*  CLEAR     45  19  35 SW5       30.17S
PITTSFIELD*    CLEAR     46  18  33 SW5       30.16S
$$

ILZ028>032-037-038-041>044-048-051>054-059>061-160100-
CENTRAL ILLINOIS

CITY           SKY/WX    TMP DP  RH WIND       PRES   REMARKS
PONTIAC        CLEAR     39  19  45 W6        30.17S WCI  35
BLOOMINGTON    CLEAR     38  14  37 W10G17    30.17S WCI  31
DECATUR        CLEAR     41  18  39 SW7       30.18R
PEORIA         CLEAR     42  15  33 W6        30.16S
6HR MIN TEMP:  38; 6HR MAX TEMP:  44;

LACON*         CLEAR     40  16  37 W6        30.15F
SPRINGFIELD    CLEAR     45  18  34 NW7       30.18R
6HR MIN TEMP:  41; 6HR MAX TEMP:  47;

TAYLORVILLE    PTCLDY    41  21  45 W5        30.18S
$$

ILZ033-039-045-046-055>057-062-063-160100-
EAST-CENTRAL ILLINOIS

CITY           SKY/WX    TMP DP  RH WIND       PRES   REMARKS
CHAMPAIGN      PTCLDY    40  19  43 NW8       30.18R
RANTOUL*       CLEAR     40  20  44 CALM      30.19R
MATTOON        PTCLDY    39  21  48 W8        30.18S WCI  33
PARIS*         CLEAR     39  23  53 CALM      30.20R
$$

ILZ079-100>102-160100-
SOUTHWEST ILLINOIS

CITY           SKY/WX    TMP DP  RH WIND       PRES   REMARKS
ALTON          CLEAR     45  14  29 SW6       30.18S
BELLEVILLE     CLEAR     46  19  33 N3        30.18S
CAHOKIA*       CLEAR     47  18  31 CALM      30.18S
SPARTA*        CLEAR     43  21  42 CALM      30.20S
$$

ILZ064>066-069>071-074>076-080>082-084>086-088>090-092>094-160100-
SOUTH-CENTRAL ILLINOIS

CITY           SKY/WX    TMP DP  RH WIND       PRES   REMARKS
CARBONDALE     CLEAR     45  22  40 NE5       30.20S
6HR MIN TEMP:  42; 6HR MAX TEMP:  48;

CAIRO*         CLEAR     49  22  33 N6        30.20S
MARION         CLEAR     45  23  42 NE5       30.20F
MT. VERNON     PTCLDY    43  16  33 N3        30.21S
CENTRALIA*       N/A     43  21  41 N3        30.20S
SALEM*         CLEAR     44  24  46 NW5       30.20S
METROPOLIS*    CLEAR     45  15  30 N7        30.20S
$$

ILZ067-068-072-073-078-083-087-091-160100-
SOUTHEAST ILLINOIS

CITY           SKY/WX    TMP DP  RH WIND       PRES   REMARKS
FLORA*         CLEAR     42  20  41 NW7       30.21S
FAIRFIELD*     CLEAR     43  19  39 CALM      30.21S
HARRISBURG*    CLEAR     43  23  44 N6        30.22S
ROBINSON*      MOCLDY    42  26  54 N5        30.22S
CARMI*         CLEAR     44  27  51 NW8       30.20F
$$

ABBREVIATIONS USED IN REMARKS
   TC - TEMPERATURE IN CELSIUS
  WCI - WIND CHILL INDEX
   HX - HEAT INDEX
  VSB - VISIBILITY
$$




USA.gov is the U.S. government's official web portal to all federal, state and local government web resources and services.